Year,Month,Day,Hour,Minute,Value (Times are PST for temperature in C)
2014,03,31,00,00,2.90
2014,03,31,00,01,2.90
2014,03,31,00,02,2.90
2014,03,31,00,03,2.90
2014,03,31,00,04,2.90
2014,03,31,00,05,2.90
2014,03,31,00,06,2.90
2014,03,31,00,07,2.80
2014,03,31,00,08,2.80
2014,03,31,00,09,2.80
2014,03,31,00,10,2.80
2014,03,31,00,11,2.80
2014,03,31,00,12,2.80
2014,03,31,00,13,2.80
2014,03,31,00,14,2.80
2014,03,31,00,15,2.80
2014,03,31,00,16,2.80
2014,03,31,00,17,2.80
2014,03,31,00,18,2.80
2014,03,31,00,19,2.80
2014,03,31,00,20,2.80
2014,03,31,00,21,2.80
2014,03,31,00,22,2.80
2014,03,31,00,23,2.80
2014,03,31,00,24,2.80
2014,03,31,00,25,2.80
2014,03,31,00,26,2.80
2014,03,31,00,27,2.80
2014,03,31,00,28,2.80
2014,03,31,00,29,2.80
2014,03,31,00,30,2.80
2014,03,31,00,31,2.80
2014,03,31,00,32,2.80
2014,03,31,00,33,2.70
2014,03,31,00,34,2.70
2014,03,31,00,35,2.70
2014,03,31,00,36,2.70
2014,03,31,00,37,2.70
2014,03,31,00,38,2.70
2014,03,31,00,39,2.70
2014,03,31,00,40,2.70
2014,03,31,00,41,2.70
2014,03,31,00,42,2.70
2014,03,31,00,43,2.70
2014,03,31,00,44,2.70
2014,03,31,00,45,2.70
2014,03,31,00,46,2.70
2014,03,31,00,47,2.70
2014,03,31,00,48,2.60
2014,03,31,00,49,2.60
2014,03,31,00,50,2.60
2014,03,31,00,51,2.60
2014,03,31,00,52,2.60
2014,03,31,00,53,2.50
2014,03,31,00,54,2.50
2014,03,31,00,55,2.50
2014,03,31,00,56,2.50
2014,03,31,00,57,2.50
2014,03,31,00,58,2.50
2014,03,31,00,59,2.50
2014,03,31,01,00,2.50
2014,03,31,01,01,2.50
2014,03,31,01,02,2.50
2014,03,31,01,03,2.50
2014,03,31,01,04,2.50
2014,03,31,01,05,2.50
2014,03,31,01,06,2.50
2014,03,31,01,07,2.50
2014,03,31,01,08,2.50
2014,03,31,01,09,2.50
2014,03,31,01,10,2.50
2014,03,31,01,11,2.50
2014,03,31,01,12,2.50
2014,03,31,01,13,2.50
2014,03,31,01,14,2.50
2014,03,31,01,15,2.50
2014,03,31,01,16,2.50
2014,03,31,01,17,2.50
2014,03,31,01,18,2.50
2014,03,31,01,19,2.50
2014,03,31,01,20,2.50
2014,03,31,01,21,2.50
2014,03,31,01,22,2.50
2014,03,31,01,23,2.50
2014,03,31,01,24,2.50
2014,03,31,01,25,2.50
2014,03,31,01,26,2.50
2014,03,31,01,27,2.60
2014,03,31,01,28,2.60
2014,03,31,01,29,2.60
2014,03,31,01,30,2.60
2014,03,31,01,31,2.60
2014,03,31,01,32,2.60
2014,03,31,01,33,2.60
2014,03,31,01,34,2.60
2014,03,31,01,35,2.70
2014,03,31,01,36,2.70
2014,03,31,01,37,2.70
2014,03,31,01,38,2.70
2014,03,31,01,39,2.70
2014,03,31,01,40,2.70
2014,03,31,01,41,2.70
2014,03,31,01,42,2.70
2014,03,31,01,43,2.70
2014,03,31,01,44,2.70
2014,03,31,01,45,2.70
2014,03,31,01,46,2.70
2014,03,31,01,47,2.70
2014,03,31,01,48,2.70
2014,03,31,01,49,2.80
2014,03,31,01,50,2.80
2014,03,31,01,51,2.80
2014,03,31,01,52,2.80
2014,03,31,01,53,2.80
2014,03,31,01,54,2.80
2014,03,31,01,55,2.80
2014,03,31,01,56,2.70
2014,03,31,01,57,2.70
2014,03,31,01,58,2.70
2014,03,31,01,59,2.70
2014,03,31,02,00,2.70
2014,03,31,02,01,2.70
2014,03,31,02,02,2.70
2014,03,31,02,03,2.70
2014,03,31,02,04,2.70
2014,03,31,02,05,2.70
2014,03,31,02,06,2.70
2014,03,31,02,07,2.70
2014,03,31,02,08,2.70
2014,03,31,02,09,2.70
2014,03,31,02,10,2.70
2014,03,31,02,11,2.70
2014,03,31,02,12,2.70
2014,03,31,02,13,2.70
2014,03,31,02,14,2.70
2014,03,31,02,15,2.70
2014,03,31,02,16,2.70
2014,03,31,02,17,2.70
2014,03,31,02,18,2.60
2014,03,31,02,19,2.60
2014,03,31,02,20,2.60
2014,03,31,02,21,2.60
2014,03,31,02,22,2.50
2014,03,31,02,23,2.50
2014,03,31,02,24,2.50
2014,03,31,02,25,2.50
2014,03,31,02,26,2.50
2014,03,31,02,27,2.50
2014,03,31,02,28,2.50
2014,03,31,02,29,2.50
2014,03,31,02,30,2.50
2014,03,31,02,31,2.50
2014,03,31,02,32,2.50
2014,03,31,02,33,2.50
2014,03,31,02,34,2.40
2014,03,31,02,35,2.40
2014,03,31,02,36,2.40
2014,03,31,02,37,2.40
2014,03,31,02,38,2.40
2014,03,31,02,39,2.40
2014,03,31,02,40,2.40
2014,03,31,02,41,2.40
2014,03,31,02,42,2.50
2014,03,31,02,43,2.50
2014,03,31,02,44,2.50
2014,03,31,02,45,2.50
2014,03,31,02,46,2.50
2014,03,31,02,47,2.50
2014,03,31,02,48,2.50
2014,03,31,02,49,2.60
2014,03,31,02,50,2.60
2014,03,31,02,51,2.60
2014,03,31,02,52,2.60
2014,03,31,02,53,2.60
2014,03,31,02,54,2.60
2014,03,31,02,55,2.60
2014,03,31,02,56,2.70
2014,03,31,02,57,2.70
2014,03,31,02,58,2.70
2014,03,31,02,59,2.70
2014,03,31,03,00,2.70
2014,03,31,03,01,2.70
2014,03,31,03,02,2.70
2014,03,31,03,03,2.70
2014,03,31,03,04,2.80
2014,03,31,03,05,2.80
2014,03,31,03,06,2.80
2014,03,31,03,07,2.90
2014,03,31,03,08,2.90
2014,03,31,03,09,2.90
2014,03,31,03,10,2.90
2014,03,31,03,11,2.90
2014,03,31,03,12,2.90
2014,03,31,03,13,2.90
2014,03,31,03,14,2.90
2014,03,31,03,15,3.00
2014,03,31,03,16,3.10
2014,03,31,03,17,3.10
2014,03,31,03,18,3.10
2014,03,31,03,19,3.10
2014,03,31,03,20,3.10
2014,03,31,03,21,3.10
2014,03,31,03,22,3.20
2014,03,31,03,23,3.20
2014,03,31,03,24,3.30
2014,03,31,03,25,3.30
2014,03,31,03,26,3.30
2014,03,31,03,27,3.30
2014,03,31,03,28,3.30
2014,03,31,03,29,3.40
2014,03,31,03,30,3.40
2014,03,31,03,31,3.40
2014,03,31,03,32,3.50
2014,03,31,03,33,3.50
2014,03,31,03,34,3.50
2014,03,31,03,35,3.50
2014,03,31,03,36,3.50
2014,03,31,03,37,3.60
2014,03,31,03,38,3.60
2014,03,31,03,39,3.60
2014,03,31,03,40,3.70
2014,03,31,03,41,3.70
2014,03,31,03,42,3.70
2014,03,31,03,43,3.70
2014,03,31,03,44,3.80
2014,03,31,03,45,3.80
2014,03,31,03,46,3.80
2014,03,31,03,47,3.80
2014,03,31,03,48,3.80
2014,03,31,03,49,3.80
2014,03,31,03,50,3.80
2014,03,31,03,51,3.80
2014,03,31,03,52,3.80
2014,03,31,03,53,3.80
2014,03,31,03,54,3.80
2014,03,31,03,55,3.80
2014,03,31,03,56,3.80
2014,03,31,03,57,3.90
2014,03,31,03,58,3.90
2014,03,31,03,59,3.90
2014,03,31,04,00,3.90
2014,03,31,04,01,3.90
2014,03,31,04,02,3.90
2014,03,31,04,03,3.90
2014,03,31,04,04,4.00
2014,03,31,04,05,4.00
2014,03,31,04,06,4.00
2014,03,31,04,07,4.00
2014,03,31,04,08,4.00
2014,03,31,04,09,4.00
2014,03,31,04,10,4.00
2014,03,31,04,11,4.00
2014,03,31,04,12,4.00
2014,03,31,04,13,4.00
2014,03,31,04,14,4.00
2014,03,31,04,15,4.00
2014,03,31,04,16,4.00
2014,03,31,04,17,4.00
2014,03,31,04,18,4.00
2014,03,31,04,19,4.00
2014,03,31,04,20,4.00
2014,03,31,04,21,4.00
2014,03,31,04,22,4.00
2014,03,31,04,23,4.00
2014,03,31,04,24,4.10
2014,03,31,04,25,4.10
2014,03,31,04,26,4.10
2014,03,31,04,27,4.10
2014,03,31,04,28,4.20
2014,03,31,04,29,4.20
2014,03,31,04,30,4.20
2014,03,31,04,31,4.20
2014,03,31,04,32,4.20
2014,03,31,04,33,4.20
2014,03,31,04,34,4.20
2014,03,31,04,35,4.20
2014,03,31,04,36,4.20
2014,03,31,04,37,4.20
2014,03,31,04,38,4.30
2014,03,31,04,39,4.30
2014,03,31,04,40,4.30
2014,03,31,04,41,4.30
2014,03,31,04,42,4.30
2014,03,31,04,43,4.40
2014,03,31,04,44,4.40
2014,03,31,04,45,4.40
2014,03,31,04,46,4.40
2014,03,31,04,47,4.40
2014,03,31,04,48,4.50
2014,03,31,04,49,4.50
2014,03,31,04,50,4.50
2014,03,31,04,51,4.50
2014,03,31,04,52,4.50
2014,03,31,04,53,4.60
2014,03,31,04,54,4.60
2014,03,31,04,55,4.60
2014,03,31,04,56,4.60
2014,03,31,04,57,4.60
2014,03,31,04,58,4.60
2014,03,31,04,59,4.60
2014,03,31,05,00,4.60
2014,03,31,05,01,4.60
2014,03,31,05,02,4.60
2014,03,31,05,03,4.60
2014,03,31,05,04,4.60
2014,03,31,05,05,4.60
2014,03,31,05,06,4.60
2014,03,31,05,07,4.60
2014,03,31,05,08,4.60
2014,03,31,05,09,4.50
2014,03,31,05,10,4.50
2014,03,31,05,11,4.50
2014,03,31,05,12,4.50
2014,03,31,05,13,4.50
2014,03,31,05,14,4.50
2014,03,31,05,15,4.50
2014,03,31,05,16,4.50
2014,03,31,05,17,4.40
2014,03,31,05,18,4.40
2014,03,31,05,19,4.40
2014,03,31,05,20,4.40
2014,03,31,05,21,4.40
2014,03,31,05,22,4.40
2014,03,31,05,23,4.40
2014,03,31,05,24,4.40
2014,03,31,05,25,4.40
2014,03,31,05,26,4.40
2014,03,31,05,27,4.40
2014,03,31,05,28,4.40
2014,03,31,05,29,4.40
2014,03,31,05,30,4.40
2014,03,31,05,31,4.40
2014,03,31,05,32,4.40
2014,03,31,05,33,4.30
2014,03,31,05,34,4.30
2014,03,31,05,35,4.30
2014,03,31,05,36,4.30
2014,03,31,05,37,4.30
2014,03,31,05,38,4.30
2014,03,31,05,39,4.20
2014,03,31,05,40,4.20
2014,03,31,05,41,4.20
2014,03,31,05,42,4.20
2014,03,31,05,43,4.20
2014,03,31,05,44,4.20
2014,03,31,05,45,4.20
2014,03,31,05,46,4.20
2014,03,31,05,47,4.20
2014,03,31,05,48,4.20
2014,03,31,05,49,4.20
2014,03,31,05,50,4.20
2014,03,31,05,51,4.20
2014,03,31,05,52,4.20
2014,03,31,05,53,4.20
2014,03,31,05,54,4.20
2014,03,31,05,55,4.20
2014,03,31,05,56,4.20
2014,03,31,05,57,4.20
2014,03,31,05,58,4.10
2014,03,31,05,59,4.10
2014,03,31,06,00,4.10
2014,03,31,06,01,4.10
2014,03,31,06,02,4.10
2014,03,31,06,03,4.10
2014,03,31,06,04,4.10
2014,03,31,06,05,4.10
2014,03,31,06,06,4.10
2014,03,31,06,07,4.10
2014,03,31,06,08,4.00
2014,03,31,06,09,4.00
2014,03,31,06,10,4.00
2014,03,31,06,11,4.00
2014,03,31,06,12,4.00
2014,03,31,06,13,4.00
2014,03,31,06,14,4.00
2014,03,31,06,15,3.90
2014,03,31,06,16,3.90
2014,03,31,06,17,3.90
2014,03,31,06,18,3.90
2014,03,31,06,19,3.90
2014,03,31,06,20,3.80
2014,03,31,06,21,3.80
2014,03,31,06,22,3.80
2014,03,31,06,23,3.80
2014,03,31,06,24,3.80
2014,03,31,06,25,3.80
2014,03,31,06,26,3.80
2014,03,31,06,27,3.80
2014,03,31,06,28,3.80
2014,03,31,06,29,3.80
2014,03,31,06,30,3.80
2014,03,31,06,31,3.80
2014,03,31,06,32,3.80
2014,03,31,06,33,3.80
2014,03,31,06,34,3.80
2014,03,31,06,35,3.80
2014,03,31,06,36,3.80
2014,03,31,06,37,3.80
2014,03,31,06,38,3.80
2014,03,31,06,39,3.80
2014,03,31,06,40,3.80
2014,03,31,06,41,3.80
2014,03,31,06,42,3.80
2014,03,31,06,43,3.70
2014,03,31,06,44,3.70
2014,03,31,06,45,3.70
2014,03,31,06,46,3.70
2014,03,31,06,47,3.70
2014,03,31,06,48,3.70
2014,03,31,06,49,3.70
2014,03,31,06,50,3.70
2014,03,31,06,51,3.80
2014,03,31,06,52,3.80
2014,03,31,06,53,3.80
2014,03,31,06,54,3.80
2014,03,31,06,55,3.80
2014,03,31,06,56,3.80
2014,03,31,06,57,3.80
2014,03,31,06,58,3.80
2014,03,31,06,59,3.80
2014,03,31,07,00,3.80
2014,03,31,07,01,3.80
2014,03,31,07,02,3.80
2014,03,31,07,03,3.80
2014,03,31,07,04,3.80
2014,03,31,07,05,3.80
2014,03,31,07,06,3.80
2014,03,31,07,07,3.80
2014,03,31,07,08,3.80
2014,03,31,07,09,3.80
2014,03,31,07,10,3.80
2014,03,31,07,11,3.80
2014,03,31,07,12,3.80
2014,03,31,07,13,3.80
2014,03,31,07,14,3.80
2014,03,31,07,15,3.80
2014,03,31,07,16,3.80
2014,03,31,07,17,3.80
2014,03,31,07,18,3.80
2014,03,31,07,19,3.80
2014,03,31,07,20,3.80
2014,03,31,07,21,3.70
2014,03,31,07,22,3.70
2014,03,31,07,23,3.70
2014,03,31,07,24,3.70
2014,03,31,07,25,3.70
2014,03,31,07,26,3.70
2014,03,31,07,27,3.70
2014,03,31,07,28,3.70
2014,03,31,07,29,3.70
2014,03,31,07,30,3.70
2014,03,31,07,31,3.70
2014,03,31,07,32,3.70
2014,03,31,07,33,3.70
2014,03,31,07,34,3.70
2014,03,31,07,35,3.80
2014,03,31,07,36,3.80
2014,03,31,07,37,3.80
2014,03,31,07,38,3.80
2014,03,31,07,39,3.80
2014,03,31,07,40,3.80
2014,03,31,07,41,3.80
2014,03,31,07,42,3.80
2014,03,31,07,43,3.80
2014,03,31,07,44,3.80
2014,03,31,07,45,3.80
2014,03,31,07,46,3.90
2014,03,31,07,47,3.90
2014,03,31,07,48,3.90
2014,03,31,07,49,3.90
2014,03,31,07,50,4.00
2014,03,31,07,51,4.00
2014,03,31,07,52,4.00
2014,03,31,07,53,4.00
2014,03,31,07,54,4.00
2014,03,31,07,55,4.00
2014,03,31,07,56,4.10
2014,03,31,07,57,4.10
2014,03,31,07,58,4.10
2014,03,31,07,59,4.20
2014,03,31,08,00,4.20
2014,03,31,08,01,4.20
2014,03,31,08,02,4.20
2014,03,31,08,03,4.20
2014,03,31,08,04,4.20
2014,03,31,08,05,4.30
2014,03,31,08,06,4.30
2014,03,31,08,07,4.30
2014,03,31,08,08,4.40
2014,03,31,08,09,4.40
2014,03,31,08,10,4.50
2014,03,31,08,11,4.50
2014,03,31,08,12,4.50
2014,03,31,08,13,4.50
2014,03,31,08,14,4.60
2014,03,31,08,15,4.60
2014,03,31,08,16,4.60
2014,03,31,08,17,4.60
2014,03,31,08,18,4.60
2014,03,31,08,19,4.60
2014,03,31,08,20,4.60
2014,03,31,08,21,4.60
2014,03,31,08,22,4.70
2014,03,31,08,23,4.70
2014,03,31,08,24,4.70
2014,03,31,08,25,4.80
2014,03,31,08,26,4.80
2014,03,31,08,27,4.80
2014,03,31,08,28,4.80
2014,03,31,08,29,4.90
2014,03,31,08,30,4.90
2014,03,31,08,31,4.90
2014,03,31,08,32,4.90
2014,03,31,08,33,4.90
2014,03,31,08,34,5.00
2014,03,31,08,35,5.10
2014,03,31,08,36,5.10
2014,03,31,08,37,5.10
2014,03,31,08,38,5.10
2014,03,31,08,39,5.20
2014,03,31,08,40,5.20
2014,03,31,08,41,5.30
2014,03,31,08,42,5.30
2014,03,31,08,43,5.30
2014,03,31,08,44,5.30
2014,03,31,08,45,5.30
2014,03,31,08,46,5.40
2014,03,31,08,47,5.40
2014,03,31,08,48,5.40
2014,03,31,08,49,5.50
2014,03,31,08,50,5.50
2014,03,31,08,51,5.50
2014,03,31,08,52,5.60
2014,03,31,08,53,5.60
2014,03,31,08,54,5.60
2014,03,31,08,55,5.60
2014,03,31,08,56,5.70
2014,03,31,08,57,5.70
2014,03,31,08,58,5.70
2014,03,31,08,59,5.70
2014,03,31,09,00,5.70
2014,03,31,09,01,5.70
2014,03,31,09,02,5.70
2014,03,31,09,03,5.70
2014,03,31,09,04,5.80
2014,03,31,09,05,5.80
2014,03,31,09,06,5.80
2014,03,31,09,07,5.80
2014,03,31,09,08,5.90
2014,03,31,09,09,5.90
2014,03,31,09,10,5.90
2014,03,31,09,11,5.90
2014,03,31,09,12,6.00
2014,03,31,09,13,6.00
2014,03,31,09,14,6.00
2014,03,31,09,15,6.00
2014,03,31,09,16,6.00
2014,03,31,09,17,6.00
2014,03,31,09,18,6.10
2014,03,31,09,19,6.10
2014,03,31,09,20,6.10
2014,03,31,09,21,6.10
2014,03,31,09,22,6.20
2014,03,31,09,23,6.20
2014,03,31,09,24,6.20
2014,03,31,09,25,6.20
2014,03,31,09,26,6.20
2014,03,31,09,27,6.20
2014,03,31,09,28,6.20
2014,03,31,09,29,6.20
2014,03,31,09,30,6.20
2014,03,31,09,31,6.20
2014,03,31,09,32,6.20
2014,03,31,09,33,6.30
2014,03,31,09,34,6.30
2014,03,31,09,35,6.30
2014,03,31,09,36,6.30
2014,03,31,09,37,6.30
2014,03,31,09,38,6.30
2014,03,31,09,39,6.30
2014,03,31,09,40,6.30
2014,03,31,09,41,6.40
2014,03,31,09,42,6.40
2014,03,31,09,43,6.40
2014,03,31,09,44,6.40
2014,03,31,09,45,6.40
2014,03,31,09,46,6.40
2014,03,31,09,47,6.40
2014,03,31,09,48,6.40
2014,03,31,09,49,6.40
2014,03,31,09,50,6.40
2014,03,31,09,51,6.50
2014,03,31,09,52,6.60
2014,03,31,09,53,6.60
2014,03,31,09,54,6.60
2014,03,31,09,55,6.60
2014,03,31,09,56,6.60
2014,03,31,09,57,6.60
2014,03,31,09,58,6.60
2014,03,31,09,59,6.60
2014,03,31,10,00,6.60
2014,03,31,10,01,6.60
2014,03,31,10,02,6.70
2014,03,31,10,03,6.70
2014,03,31,10,04,6.70
2014,03,31,10,05,6.70
2014,03,31,10,06,6.70
2014,03,31,10,07,6.70
2014,03,31,10,08,6.70
2014,03,31,10,09,6.70
2014,03,31,10,10,6.70
2014,03,31,10,11,6.80
2014,03,31,10,12,6.80
2014,03,31,10,13,6.80
2014,03,31,10,14,6.80
2014,03,31,10,15,6.80
2014,03,31,10,16,6.90
2014,03,31,10,17,6.90
2014,03,31,10,18,7.00
2014,03,31,10,19,7.00
2014,03,31,10,20,7.00
2014,03,31,10,21,7.10
2014,03,31,10,22,7.10
2014,03,31,10,23,7.10
2014,03,31,10,24,7.20
2014,03,31,10,25,7.20
2014,03,31,10,26,7.30
2014,03,31,10,27,7.30
2014,03,31,10,28,7.30
2014,03,31,10,29,7.30
2014,03,31,10,30,7.30
2014,03,31,10,31,7.30
2014,03,31,10,32,7.30
2014,03,31,10,33,7.40
2014,03,31,10,34,7.40
2014,03,31,10,35,7.50
2014,03,31,10,36,7.50
2014,03,31,10,37,7.50
2014,03,31,10,38,7.60
2014,03,31,10,39,7.60
2014,03,31,10,40,7.60
2014,03,31,10,41,7.60
2014,03,31,10,42,7.60
2014,03,31,10,43,7.70
2014,03,31,10,44,7.60
2014,03,31,10,45,7.60
2014,03,31,10,46,7.70
2014,03,31,10,47,7.70
2014,03,31,10,48,7.70
2014,03,31,10,49,7.60
2014,03,31,10,50,7.60
2014,03,31,10,51,7.60
2014,03,31,10,52,7.60
2014,03,31,10,53,7.60
2014,03,31,10,54,7.60
2014,03,31,10,55,7.50
2014,03,31,10,56,7.50
2014,03,31,10,57,7.50
2014,03,31,10,58,7.50
2014,03,31,10,59,7.40
2014,03,31,11,00,7.40
2014,03,31,11,01,7.40
2014,03,31,11,02,7.40
2014,03,31,11,03,7.40
2014,03,31,11,04,7.40
2014,03,31,11,05,7.40
2014,03,31,11,06,7.40
2014,03,31,11,07,7.30
2014,03,31,11,08,7.30
2014,03,31,11,09,7.40
2014,03,31,11,10,7.40
2014,03,31,11,11,7.40
2014,03,31,11,12,7.40
2014,03,31,11,13,7.50
2014,03,31,11,14,7.50
2014,03,31,11,15,7.60
2014,03,31,11,16,7.60
2014,03,31,11,17,7.60
2014,03,31,11,18,7.70
2014,03,31,11,19,7.80
2014,03,31,11,20,7.80
2014,03,31,11,21,7.80
2014,03,31,11,22,7.80
2014,03,31,11,23,7.80
2014,03,31,11,24,7.80
2014,03,31,11,25,7.90
2014,03,31,11,26,7.90
2014,03,31,11,27,8.00
2014,03,31,11,28,7.90
2014,03,31,11,29,7.90
2014,03,31,11,30,7.90
2014,03,31,11,31,8.00
2014,03,31,11,32,8.00
2014,03,31,11,33,8.00
2014,03,31,11,34,8.00
2014,03,31,11,35,8.10
2014,03,31,11,36,8.10
2014,03,31,11,37,8.20
2014,03,31,11,38,8.20
2014,03,31,11,39,8.20
2014,03,31,11,40,8.20
2014,03,31,11,41,8.20
2014,03,31,11,42,8.30
2014,03,31,11,43,8.30
2014,03,31,11,44,8.40
2014,03,31,11,45,8.40
2014,03,31,11,46,8.40
2014,03,31,11,47,8.40
2014,03,31,11,48,8.40
2014,03,31,11,49,8.40
2014,03,31,11,50,8.40
2014,03,31,11,51,8.40
2014,03,31,11,52,8.40
2014,03,31,11,53,8.40
2014,03,31,11,54,8.40
2014,03,31,11,55,8.40
2014,03,31,11,56,8.40
2014,03,31,11,57,8.30
2014,03,31,11,58,8.30
2014,03,31,11,59,8.30
2014,03,31,12,00,8.30
2014,03,31,12,01,8.30
2014,03,31,12,02,8.30
2014,03,31,12,03,8.40
2014,03,31,12,04,8.40
2014,03,31,12,05,8.40
2014,03,31,12,06,8.40
2014,03,31,12,07,8.40
2014,03,31,12,08,8.40
2014,03,31,12,09,8.40
2014,03,31,12,10,8.40
2014,03,31,12,11,8.40
2014,03,31,12,12,8.40
2014,03,31,12,13,8.50
2014,03,31,12,14,8.50
2014,03,31,12,15,8.50
2014,03,31,12,16,8.60
2014,03,31,12,17,8.60
2014,03,31,12,18,8.70
2014,03,31,12,19,8.70
2014,03,31,12,20,8.70
2014,03,31,12,21,8.70
2014,03,31,12,22,8.70
2014,03,31,12,23,8.70
2014,03,31,12,24,8.70
2014,03,31,12,25,8.70
2014,03,31,12,26,8.70
2014,03,31,12,27,8.70
2014,03,31,12,28,8.80
2014,03,31,12,29,8.80
2014,03,31,12,30,8.80
2014,03,31,12,31,8.80
2014,03,31,12,32,8.90
2014,03,31,12,33,8.90
2014,03,31,12,34,8.90
2014,03,31,12,35,8.90
2014,03,31,12,36,8.90
2014,03,31,12,37,9.00
2014,03,31,12,38,9.00
2014,03,31,12,39,9.00
2014,03,31,12,40,9.00
2014,03,31,12,41,9.00
2014,03,31,12,42,9.10
2014,03,31,12,43,9.10
2014,03,31,12,44,9.10
2014,03,31,12,45,9.20
2014,03,31,12,46,9.20
2014,03,31,12,47,9.20
2014,03,31,12,48,9.30
2014,03,31,12,49,9.30
2014,03,31,12,50,9.40
2014,03,31,12,51,9.40
2014,03,31,12,52,9.50
2014,03,31,12,53,9.50
2014,03,31,12,54,9.50
2014,03,31,12,55,9.50
2014,03,31,12,56,9.50
2014,03,31,12,57,9.50
2014,03,31,12,58,9.40
2014,03,31,12,59,9.40
2014,03,31,13,00,9.40
2014,03,31,13,01,9.40
2014,03,31,13,02,9.30
2014,03,31,13,03,9.30
2014,03,31,13,04,9.30
2014,03,31,13,05,9.40
2014,03,31,13,06,9.40
2014,03,31,13,07,9.40
2014,03,31,13,08,9.40
2014,03,31,13,09,9.50
2014,03,31,13,10,9.60
2014,03,31,13,11,9.60
2014,03,31,13,12,9.60
2014,03,31,13,13,9.70
2014,03,31,13,14,9.70
2014,03,31,13,15,9.70
2014,03,31,13,16,9.70
2014,03,31,13,17,9.80
2014,03,31,13,18,9.80
2014,03,31,13,19,9.80
2014,03,31,13,20,9.90
2014,03,31,13,21,9.90
2014,03,31,13,22,9.90
2014,03,31,13,23,10.00
2014,03,31,13,24,10.10
2014,03,31,13,25,10.10
2014,03,31,13,26,10.10
2014,03,31,13,27,10.10
2014,03,31,13,28,10.10
2014,03,31,13,29,10.20
2014,03,31,13,30,10.20
2014,03,31,13,31,10.20
2014,03,31,13,32,10.20
2014,03,31,13,33,10.20
2014,03,31,13,34,10.20
2014,03,31,13,35,10.20
2014,03,31,13,36,10.20
2014,03,31,13,37,10.20
2014,03,31,13,38,10.20
2014,03,31,13,39,10.30
2014,03,31,13,40,10.30
2014,03,31,13,41,10.30
2014,03,31,13,42,10.30
2014,03,31,13,43,10.30
2014,03,31,13,44,10.30
2014,03,31,13,45,10.20
2014,03,31,13,46,10.20
2014,03,31,13,47,10.20
2014,03,31,13,48,10.20
2014,03,31,13,49,10.20
2014,03,31,13,50,10.30
2014,03,31,13,51,10.30
2014,03,31,13,52,10.30
2014,03,31,13,53,10.30
2014,03,31,13,54,10.30
2014,03,31,13,55,10.40
2014,03,31,13,56,10.40
2014,03,31,13,57,10.40
2014,03,31,13,58,10.50
2014,03,31,13,59,10.60
2014,03,31,14,00,10.60
2014,03,31,14,01,10.60
2014,03,31,14,02,10.70
2014,03,31,14,03,10.80
2014,03,31,14,04,10.90
2014,03,31,14,05,10.90
2014,03,31,14,06,11.00
2014,03,31,14,07,11.10
2014,03,31,14,08,11.10
2014,03,31,14,09,11.10
2014,03,31,14,10,11.20
2014,03,31,14,11,11.20
2014,03,31,14,12,11.20
2014,03,31,14,13,11.20
2014,03,31,14,14,11.20
2014,03,31,14,15,11.20
2014,03,31,14,16,11.20
2014,03,31,14,17,11.30
2014,03,31,14,18,11.30
2014,03,31,14,19,11.40
2014,03,31,14,20,11.40
2014,03,31,14,21,11.40
2014,03,31,14,22,11.60
2014,03,31,14,23,11.60
2014,03,31,14,24,11.60
2014,03,31,14,25,11.60
2014,03,31,14,26,11.60
2014,03,31,14,27,11.60
2014,03,31,14,28,11.60
2014,03,31,14,29,11.60
2014,03,31,14,30,11.60
2014,03,31,14,31,11.60
2014,03,31,14,32,11.60
2014,03,31,14,33,11.60
2014,03,31,14,34,11.60
2014,03,31,14,35,11.60
2014,03,31,14,36,11.70
2014,03,31,14,37,11.80
2014,03,31,14,38,11.80
2014,03,31,14,39,11.80
2014,03,31,14,40,11.80
2014,03,31,14,41,11.80
2014,03,31,14,42,11.80
2014,03,31,14,43,11.80
2014,03,31,14,44,11.80
2014,03,31,14,45,11.70
2014,03,31,14,46,11.70
2014,03,31,14,47,11.70
2014,03,31,14,48,11.70
2014,03,31,14,49,11.70
2014,03,31,14,50,11.70
2014,03,31,14,51,11.70
2014,03,31,14,52,11.80
2014,03,31,14,53,11.80
2014,03,31,14,54,11.80
2014,03,31,14,55,11.80
2014,03,31,14,56,11.80
2014,03,31,14,57,11.80
2014,03,31,14,58,11.80
2014,03,31,14,59,11.80
2014,03,31,15,00,11.80
2014,03,31,15,01,11.80
2014,03,31,15,02,11.80
2014,03,31,15,03,11.90
2014,03,31,15,04,11.90
2014,03,31,15,05,11.90
2014,03,31,15,06,11.90
2014,03,31,15,07,11.90
2014,03,31,15,08,11.90
2014,03,31,15,09,11.80
2014,03,31,15,10,11.80
2014,03,31,15,11,11.80
2014,03,31,15,12,11.80
2014,03,31,15,13,11.80
2014,03,31,15,14,11.90
2014,03,31,15,15,12.00
2014,03,31,15,16,12.00
2014,03,31,15,17,12.10
2014,03,31,15,18,12.20
2014,03,31,15,19,12.30
2014,03,31,15,20,12.30
2014,03,31,15,21,12.20
2014,03,31,15,22,12.30
2014,03,31,15,23,12.30
2014,03,31,15,24,12.20
2014,03,31,15,25,12.20
2014,03,31,15,26,12.20
2014,03,31,15,27,12.20
2014,03,31,15,28,12.30
2014,03,31,15,29,12.30
2014,03,31,15,30,12.30
2014,03,31,15,31,12.40
2014,03,31,15,32,12.50
2014,03,31,15,33,12.50
2014,03,31,15,34,12.60
2014,03,31,15,35,12.60
2014,03,31,15,36,12.60
2014,03,31,15,37,12.60
2014,03,31,15,38,12.70
2014,03,31,15,39,12.80
2014,03,31,15,40,12.80
2014,03,31,15,41,12.80
2014,03,31,15,42,12.80
2014,03,31,15,43,12.70
2014,03,31,15,44,12.70
2014,03,31,15,45,12.70
2014,03,31,15,46,12.70
2014,03,31,15,47,12.60
2014,03,31,15,48,12.70
2014,03,31,15,49,12.70
2014,03,31,15,50,12.60
2014,03,31,15,51,12.60
2014,03,31,15,52,12.50
2014,03,31,15,53,12.50
2014,03,31,15,54,12.50
2014,03,31,15,55,12.50
2014,03,31,15,56,12.40
2014,03,31,15,57,12.40
2014,03,31,15,58,12.30
2014,03,31,15,59,12.30
2014,03,31,16,00,12.30
2014,03,31,16,01,12.30
2014,03,31,16,02,12.20
2014,03,31,16,03,12.20
2014,03,31,16,04,12.20
2014,03,31,16,05,12.20
2014,03,31,16,06,12.20
2014,03,31,16,07,12.20
2014,03,31,16,08,12.20
2014,03,31,16,09,12.20
2014,03,31,16,10,12.20
2014,03,31,16,11,12.20
2014,03,31,16,12,12.20
2014,03,31,16,13,12.20
2014,03,31,16,14,12.20
2014,03,31,16,15,12.20
2014,03,31,16,16,12.20
2014,03,31,16,17,12.20
2014,03,31,16,18,12.20
2014,03,31,16,19,12.20
2014,03,31,16,20,12.10
2014,03,31,16,21,12.10
2014,03,31,16,22,12.10
2014,03,31,16,23,12.10
2014,03,31,16,24,12.10
2014,03,31,16,25,12.20
2014,03,31,16,26,12.20
2014,03,31,16,27,12.20
2014,03,31,16,28,12.20
2014,03,31,16,29,12.20
2014,03,31,16,30,12.10
2014,03,31,16,31,12.10
2014,03,31,16,32,12.00
2014,03,31,16,33,12.00
2014,03,31,16,34,12.00
2014,03,31,16,35,12.00
2014,03,31,16,36,11.90
2014,03,31,16,37,11.90
2014,03,31,16,38,11.90
2014,03,31,16,39,11.90
2014,03,31,16,40,11.90
2014,03,31,16,41,11.90
2014,03,31,16,42,11.90
2014,03,31,16,43,11.90
2014,03,31,16,44,12.00
2014,03,31,16,45,12.00
2014,03,31,16,46,12.00
2014,03,31,16,47,12.00
2014,03,31,16,48,12.00
2014,03,31,16,49,12.00
2014,03,31,16,50,12.00
2014,03,31,16,51,12.00
2014,03,31,16,52,12.00
2014,03,31,16,53,12.00
2014,03,31,16,54,12.00
2014,03,31,16,55,12.00
2014,03,31,16,56,12.00
2014,03,31,16,57,12.00
2014,03,31,16,58,12.00
2014,03,31,16,59,12.00
2014,03,31,17,00,12.10
2014,03,31,17,01,12.10
2014,03,31,17,02,12.10
2014,03,31,17,03,12.00
2014,03,31,17,04,12.00
2014,03,31,17,05,12.00
2014,03,31,17,06,12.00
2014,03,31,17,07,12.00
2014,03,31,17,08,12.00
2014,03,31,17,09,11.90
2014,03,31,17,10,11.90
2014,03,31,17,11,11.90
2014,03,31,17,12,11.90
2014,03,31,17,13,11.80
2014,03,31,17,14,11.80
2014,03,31,17,15,11.80
2014,03,31,17,16,11.80
2014,03,31,17,17,11.80
2014,03,31,17,18,11.80
2014,03,31,17,19,11.80
2014,03,31,17,20,11.80
2014,03,31,17,21,11.80
2014,03,31,17,22,11.80
2014,03,31,17,23,11.80
2014,03,31,17,24,11.80
2014,03,31,17,25,11.80
2014,03,31,17,26,11.80
2014,03,31,17,27,11.80
2014,03,31,17,28,11.80
2014,03,31,17,29,11.80
2014,03,31,17,30,11.80
2014,03,31,17,31,11.80
2014,03,31,17,32,11.80
2014,03,31,17,33,11.80
2014,03,31,17,34,11.80
2014,03,31,17,35,11.80
2014,03,31,17,36,11.80
2014,03,31,17,37,11.80
2014,03,31,17,38,11.80
2014,03,31,17,39,11.80
2014,03,31,17,40,11.80
2014,03,31,17,41,11.80
2014,03,31,17,42,11.80
2014,03,31,17,43,11.80
2014,03,31,17,44,11.80
2014,03,31,17,45,11.80
2014,03,31,17,46,11.80
2014,03,31,17,47,11.90
2014,03,31,17,48,11.90
2014,03,31,17,49,11.90
2014,03,31,17,50,11.90
2014,03,31,17,51,11.90
2014,03,31,17,52,11.90
2014,03,31,17,53,11.90
2014,03,31,17,54,11.90